This is the latest recevied weather packets stored in our database for station/object KC5TIL-3. If no packets are shown the sender has not sent any weather packets the latest 10 day(s).
| Time | Temp. | Humidity | Pressure | Rain* | Wind** | Luminosity | Snow |
|---|---|---|---|---|---|---|---|
| 1788123622 | 37.22° C | 10% | 1010.8 hPa | 0 mm | 2.24 m/s, 117° | - | - |
| 1788123321 | 37.78° C | 10% | 1010.8 hPa | 0 mm | 4.47 m/s, 123° | - | - |
| 1788123022 | 37.78° C | 10% | 1010.8 hPa | 0 mm | 3.13 m/s, 111° | - | - |
| 1788122724 | 37.78° C | 10% | 1010.8 hPa | 0 mm | 0 m/s | - | - |
| 1788122423 | 37.22° C | 10% | 1010.8 hPa | 0 mm | 3.13 m/s, 202° | - | - |
| 1788122125 | 36.67° C | 10% | 1010.8 hPa | 0 mm | 3.13 m/s, 112° | - | - |
| 1788121827 | 36.67° C | 10% | 1010.8 hPa | 0 mm | 4.47 m/s, 148° | - | - |
| 1788121525 | 36.67° C | 10% | 1010.8 hPa | 0 mm | 2.68 m/s, 127° | - | - |
| 1788121222 | 36.67° C | 10% | 1010.8 hPa | 0 mm | 5.36 m/s, 127° | - | - |
| 1788120924 | 37.22° C | 10% | 1011.8 hPa | 0 mm | 4.47 m/s, 125° | - | - |
| 1788120623 | 36.11° C | 10% | 1011.8 hPa | 0 mm | 4.92 m/s, 106° | - | - |
| 1788120324 | 37.22° C | 10% | 1011.8 hPa | 0 mm | 2.68 m/s, 233° | - | - |
| 1788120026 | 36.11° C | 10% | 1011.8 hPa | 0 mm | 3.13 m/s, 101° | - | - |
| 1788119725 | 37.22° C | 10% | 1011.8 hPa | 0 mm | 2.68 m/s, 151° | - | - |
| 1788119427 | 36.67° C | 10% | 1011.8 hPa | 0 mm | 3.58 m/s, 229° | - | - |
| 1788119129 | 36.67° C | 10% | 1011.8 hPa | 0 mm | 1.34 m/s, 207° | - | - |
| 1788118827 | 36.67° C | 10% | 1011.8 hPa | 0 mm | 4.92 m/s, 199° | - | - |
| 1788118529 | 36.67° C | 10% | 1011.8 hPa | 0 mm | 1.79 m/s, 166° | - | - |
| 1788118231 | 37.22° C | 10% | 1011.8 hPa | 0 mm | 1.79 m/s, 203° | - | - |
| 1788117930 | 37.22° C | 10% | 1011.8 hPa | 0 mm | 4.47 m/s, 117° | - | - |
| 1788117631 | 36.67° C | 10% | 1011.8 hPa | 0 mm | 2.68 m/s, 249° | - | - |
| 1788117333 | 36.11° C | 11% | 1011.8 hPa | 0 mm | 2.24 m/s, 127° | - | - |
| 1788117032 | 36.11° C | 11% | 1011.8 hPa | 0 mm | 2.68 m/s, 193° | - | - |
| 1788116734 | 36.67° C | 10% | 1011.8 hPa | 0 mm | 3.13 m/s, 215° | - | - |
| 1788116435 | 36.67° C | 10% | 1012.8 hPa | 0 mm | 2.24 m/s, 217° | - | - |
* Rain latest hour (hover to see other rain measurements)
** Current wind speed in m/s (hover to see current wind gust speed)